Wind_Speed
11 10 8 7 7 7 8 5 3 4 5 6 7 8 7 6 4 4 4 5 5 5 6 7 8 10 10 11 12 12 13 14 15
12 11 10 8 7 8 9 6 5 5 6 6 7 7 7 6 6 6 6 5 4 5 6 8 9 10 11 11 11 12 13 15 16
13 13 11 8 8 9 9 7 6 6 7 7 7 7 7 7 7 7 6 4 4 6 7 9 10 10 10 10 10 11 13 15 16
16 14 13 10 9 10 10 8 7 7 8 9 8 8 8 8 7 7 6 4 5 6 8 9 9 9 9 9 11 13 14 15 16
19 17 15 12 11 11 12 11 8 7 9 9 9 10 9 8 8 7 6 5 7 8 7 8 8 8 8 10 12 13 14 15 16
22 20 18 15 14 13 13 13 9 9 10 10 11 10 10 9 8 6 6 7 8 8 7 6 6 7 9 10 11 12 13 15 16
25 22 22 19 18 17 16 14 11 10 11 11 11 11 11 10 8 6 7 8 9 7 5 5 5 7 8 9 10 12 13 14 16
29 29 26 24 22 19 17 16 13 12 12 12 13 12 11 10 8 8 9 10 9 6 4 4 5 6 6 8 10 12 13 14 15
34 33 31 26 23 21 18 18 16 14 14 15 14 14 12 10 10 10 11 10 8 5 3 3 4 4 5 8 10 12 14 14 14
36 35 34 31 26 23 21 20 18 15 15 16 15 14 13 11 12 12 12 10 8 5 3 2 1 4 6 8 10 13 15 15 15
38 38 37 33 29 26 23 21 19 17 17 18 17 16 14 14 14 13 12 10 7 5 3 1 3 6 8 9 10 13 14 15 15
43 38 37 35 31 29 26 25 24 20 19 20 19 17 16 16 16 15 13 10 9 6 4 4 5 7 10 12 13 14 15 16 15
50 43 40 37 34 32 30 27 26 23 21 21 20 19 18 19 17 16 13 12 9 7 5 5 8 10 12 14 16 16 16 15 16
56 52 44 39 37 36 32 29 27 24 23 23 22 21 20 20 18 17 15 12 10 8 6 7 11 14 14 15 17 18 17 17 15
52 48 44 40 39 38 36 32 30 27 25 25 24 24 24 22 21 19 16 13 11 9 8 9 13 14 14 18 16 16 16 18 18
53 50 46 42 42 40 37 34 33 31 31 29 28 27 26 25 24 21 17 15 13 10 10 11 12 14 17 17 18 19 18 19 23
50 53 52 45 44 44 40 37 36 35 34 33 30 30 30 28 25 21 18 16 14 13 12 12 12 16 18 18 22 24 24 24 24
55 56 53 49 47 45 43 39 39 38 36 34 34 34 33 28 26 23 20 18 17 15 14 14 15 19 21 22 24 26 26 25 25
47 57 56 51 47 47 43 40 39 39 38 35 36 32 30 29 27 25 23 20 19 18 16 17 19 21 21 27 27 27 24 20 20
44 59 52 52 49 50 44 42 41 42 39 36 35 33 33 31 28 24 22 21 21 20 20 21 21 24 26 28 27 26 23 20 18
Wind_Direction
225 222 229 243 252 228 216 201 167 168 167 167 162 161 162 161 157 125 128 115 100 83 76 69 70 70 69 64 58 47 40 33 31
231 226 224 242 243 237 219 195 173 167 170 172 171 172 173 167 154 142 135 117 103 90 86 83 83 81 73 63 49 42 36 34 31
230 228 229 234 239 244 223 202 182 168 173 182 188 176 169 163 158 144 135 137 109 101 99 97 91 79 67 54 46 42 38 34 33
231 227 233 223 227 244 244 217 195 179 183 193 187 178 171 167 160 153 149 133 115 114 108 100 85 70 60 52 44 43 41 39 34
230 226 233 228 216 231 241 232 208 194 193 198 186 180 173 173 168 164 155 139 132 124 114 96 81 67 60 57 54 51 46 39 29
229 231 230 231 224 220 231 236 224 204 200 200 191 184 178 176 179 176 159 145 138 129 114 92 77 70 65 62 54 46 35 30 25
233 231 230 227 227 220 221 229 230 214 205 203 195 189 186 182 181 180 164 151 146 136 118 94 79 72 65 53 40 30 23 19 14
230 229 230 225 226 227 223 225 227 218 207 206 200 194 193 190 184 180 168 159 152 146 127 104 84 70 55 38 25 16 9 6 3
221 228 229 229 230 227 226 222 222 219 208 206 203 199 197 193 191 180 171 167 162 160 152 115 83 53 27 15 9 4 357 352 351
227 223 227 230 229 226 225 223 224 221 212 211 206 204 202 201 190 183 179 179 176 172 164 111 44 7 360 356 352 346 340 336 335
224 226 222 226 230 224 226 224 225 223 212 212 208 207 205 202 191 185 187 186 188 178 187 239 324 336 337 334 332 337 347 342 336
222 223 225 224 225 224 223 224 220 219 214 212 211 211 207 202 192 191 193 191 190 198 225 277 313 319 321 319 312 313 328 327 328
235 223 222 224 223 223 224 225 224 220 214 213 215 214 208 204 198 197 198 196 203 217 250 292 301 309 315 317 306 308 324 325 318
217 215 218 222 221 222 223 226 224 224 218 211 212 215 210 206 203 201 202 204 216 229 253 277 295 302 307 319 318 298 303 315 318
212 216 213 219 220 220 221 225 223 220 219 215 213 213 212 205 205 205 208 213 224 235 255 287 306 304 305 310 320 316 302 305 307
211 213 211 217 222 223 223 224 223 219 217 214 214 213 212 208 208 210 214 219 229 239 265 292 303 312 309 309 311 311 301 295 296
229 213 211 212 219 221 220 223 223 218 220 217 216 217 214 211 213 216 220 227 233 245 268 286 298 315 316 309 312 310 298 288 281
229 216 210 209 216 222 221 222 223 223 222 219 222 219 219 215 217 220 224 231 237 253 271 285 299 313 316 312 312 316 309 294 286
223 215 212 210 214 221 222 225 226 223 224 223 223 221 226 223 224 225 230 236 247 259 273 284 302 313 318 318 315 316 317 304 293
218 217 214 211 214 221 224 223 226 224 225 225 228 226 222 223 228 234 241 248 257 266 275 288 300 311 321 321 312 317 316 305 304
Height
3171 3173 3174 3175 3175 3175 3175 3176 3177 3178 3178 3178 3179 3180 3181 3181 3181 3181 3181 3181 3180 3180 3180 3179 3178 3178 3176 3175 3174 3172 3171 3170 3168
3171 3172 3173 3175 3176 3175 3175 3176 3177 3178 3179 3179 3180 3181 3181 3182 3182 3182 3182 3182 3182 3181 3181 3180 3179 3178 3177 3176 3175 3174 3173 3172 3170
3171 3172 3173 3174 3175 3176 3176 3176 3178 3179 3179 3179 3180 3181 3181 3182 3182 3182 3183 3183 3183 3182 3182 3181 3180 3180 3179 3178 3177 3176 3175 3173 3172
3170 3171 3173 3173 3174 3176 3177 3177 3178 3179 3179 3180 3180 3181 3182 3182 3183 3183 3183 3183 3184 3183 3183 3182 3182 3182 3181 3180 3179 3178 3177 3175 3173
3168 3170 3172 3173 3173 3175 3176 3177 3178 3179 3179 3180 3181 3181 3182 3183 3184 3183 3183 3184 3184 3184 3184 3184 3183 3183 3182 3181 3180 3179 3178 3176 3175
3166 3168 3170 3172 3173 3173 3175 3177 3178 3179 3179 3180 3180 3181 3182 3182 3184 3184 3184 3184 3185 3185 3185 3185 3184 3184 3183 3183 3182 3180 3179 3178 3176
3164 3166 3167 3170 3171 3171 3173 3175 3178 3179 3179 3179 3180 3181 3182 3182 3183 3184 3185 3185 3186 3186 3186 3186 3186 3185 3185 3184 3183 3182 3180 3179 3177
3160 3162 3164 3166 3168 3170 3171 3173 3177 3178 3179 3179 3180 3180 3181 3182 3183 3184 3185 3186 3186 3187 3187 3186 3187 3186 3186 3185 3184 3182 3181 3180 3177
3152 3157 3161 3164 3166 3169 3170 3171 3174 3176 3178 3178 3179 3180 3181 3182 3183 3184 3185 3186 3186 3187 3187 3187 3187 3187 3186 3185 3184 3182 3181 3179 3177
3150 3152 3157 3160 3163 3166 3168 3169 3172 3175 3176 3177 3178 3179 3180 3182 3182 3184 3185 3185 3186 3186 3187 3187 3187 3187 3186 3185 3183 3181 3180 3178 3176
3145 3149 3152 3157 3160 3163 3166 3168 3170 3173 3175 3175 3177 3178 3180 3181 3182 3183 3184 3185 3186 3186 3187 3187 3187 3186 3186 3184 3182 3180 3178 3177 3175
3139 3146 3151 3153 3157 3160 3162 3164 3166 3169 3172 3174 3175 3177 3178 3180 3181 3182 3183 3184 3185 3186 3186 3186 3186 3185 3184 3183 3181 3179 3177 3175 3174
3133 3138 3146 3149 3152 3155 3158 3160 3163 3166 3169 3172 3173 3175 3177 3179 3180 3181 3182 3183 3185 3185 3186 3186 3184 3184 3182 3181 3178 3177 3175 3173 3171
3120 3127 3138 3143 3146 3150 3153 3156 3160 3164 3166 3169 3171 3173 3175 3177 3178 3179 3181 3182 3183 3184 3184 3183 3182 3181 3180 3178 3176 3174 3173 3170 3169
3110 3117 3128 3137 3141 3144 3147 3152 3156 3160 3164 3166 3168 3170 3172 3174 3176 3177 3179 3180 3181 3182 3182 3182 3180 3179 3177 3176 3173 3171 3171 3168 3166
3099 3113 3121 3130 3134 3139 3144 3147 3151 3155 3158 3161 3164 3166 3168 3170 3173 3174 3177 3178 3179 3180 3180 3179 3177 3177 3175 3173 3171 3169 3168 3166 3165
3101 3104 3113 3121 3127 3132 3136 3141 3145 3150 3153 3156 3160 3162 3165 3167 3170 3172 3174 3176 3176 3176 3176 3176 3175 3174 3173 3171 3169 3166 3163 3161 3160
3093 3098 3105 3112 3119 3125 3130 3136 3139 3144 3148 3152 3155 3156 3160 3165 3167 3169 3171 3172 3173 3173 3173 3173 3173 3172 3170 3168 3165 3162 3159 3157 3154
3086 3090 3096 3104 3111 3118 3125 3131 3136 3140 3143 3147 3149 3154 3159 3161 3165 3166 3168 3169 3170 3170 3170 3170 3169 3168 3166 3164 3161 3158 3155 3152 3150
3077 3083 3090 3098 3103 3112 3118 3125 3129 3134 3139 3143 3147 3151 3154 3157 3161 3163 3165 3165 3166 3166 3166 3167 3165 3164 3162 3159 3157 3153 3150 3149 3147